Hourly Data Report for December 28, 2018

CARBERRY CS
MANITOBA
Current Station Operator: ECCC - MSC

49°54'20.900" N
99°21'26.800" W
383.50 m
5010547
71170
WZE

Download Data

Hourly Data (December 2018)
Hourly Data Report for December 28, 2018
TIME
LST
Temp Definition
°C
Dew Point Definition
°C
Rel Hum Definition
%
Precip. Amount Definition
mm

Wind Dir Definition
10's deg

Wind Spd Definition
km/h
Visibility Definition
km
Stn Press Definition
kPa
Hmdx Definition


Wind Chill Definition


Weather Definition


00:00 -19.8 -22.5 79 0.0 36 16   97.81   -29 LegendNANA
01:00 -20.6 -23.4 78 0.0 36 15   97.86   -30 LegendNANA
02:00 -21.0 -24.0 77 0.0 1 17   97.96   -31 LegendNANA
03:00 -21.8 -24.7 77 0.0 1 19   98.00   -32 LegendNANA
04:00 -23.0 -25.9 77 0.0 35 7   98.03   -29 LegendNANA
05:00 -22.9 -25.6 78 0.0 35 11   98.03   -31 LegendNANA
06:00 -23.4 -26.2 78 0.0 34 14   98.06   -33 LegendNANA
07:00 -23.8 -26.5 79 0.0 33 14   98.08   -33 LegendNANA
08:00 -25.5 -28.3 78 0.0 29 6   98.12   -31 LegendNANA
09:00 -26.2 -29.0 77 0.0 28 6   98.15   -32 LegendNANA
10:00 -25.3 -28.6 74 0.0 25 4   98.18   -29 LegendNANA
11:00 -22.3 -26.0 72 0.0 20 5   98.16   -27 LegendNANA
12:00 -20.7 -24.7 70 0.0 17 4   98.00   -24 LegendNANA
13:00 -19.4 -24.0 67 0.0 16 5   97.94   -24 LegendNANA
14:00 -18.5 -23.8 63 0.0 20 12   97.91   -26 LegendNANA
15:00 -18.3 -23.7 63 0.0 19 10   97.91   -25 LegendNANA
16:00 -19.0 -23.7 67 0.0 22 10   97.84   -26 LegendNANA
17:00 -20.5 -24.2 72 0.0 21 10   97.77   -28 LegendNANA
18:00 -21.6 -24.9 74 0.0 21 9   97.69   -29 LegendNANA
19:00 -21.4 -24.6 76 0.0 20 9   97.65   -28 LegendNANA
20:00 -21.3 -24.5 75 0.0 23 7   97.56   -27 LegendNANA
21:00 -22.6 -25.6 76 0.0 21 10   97.51   -30 LegendNANA
22:00 -22.4 -25.2 78 0.0 20 10   97.42   -30 LegendNANA
23:00 -21.8 -24.6 78 0.0 23 5   97.37   -26 LegendNANA

Notes on Data Quality.

Legend

  • E = Estimated
  • M = Missing
  • NA = Not Available*
  • [empty] = Indicates an unobserved value
Date modified: